Flag for U.S.A. Weather past 2 weeks in Metairie, Louisiana, U.S.A.

Now
83 °F

Scattered clouds.


Feels Like: 85 °F
Forecast: 81 / 94 °F
Wind: 12 mph from Northeast

Location: New Orleans International Airport

Current Time: Aug 1, 2015 at 9:25:03 AM

Latest Report: Aug 1, 2015 at 8:53 AM


Visibility: 10 mi

Pressure: 29.93 "Hg

Humidity: 55%

Dew point: 65 °F

Location of MetairieLocation

Historic Weather in Metairie — Graph

°F

Metairie temperature yesterday

Maximum temperature yesterday: 93 °F (at 3:53 PM)
Minimum temperature yesterday: 80 °F (at 12:53 AM)
Average temperature yesterday: 86 °F

Past Weeks' High & Low Weather Summary

 TemperatureHumidityPressure
High99 °F (Jul 29, 3:53 PM)90% (Jul 22, 5:53 AM)30.08 "Hg (Jul 22, 5:53 AM)
Low76 °F (Jul 26, 4:53 AM)37% (Jul 29, 3:53 PM)29.87 "Hg (Jul 25, 4:53 PM)
Average85 °F68%29.98 "Hg
* Reported Jul 17 7:53 AM — Aug 1 7:53 AM, Metairie, Weather by CustomWeather, © 2015

Note: Actual official high and low records may vary slightly from our data, if they occured in-between our weather recording intervals... More about our weather records

Advertising

Metairie weather history for previous 24 hours

 ConditionsComfort  
Time TempWeatherWind HumidityBarometerVisibility
7:53 AM
Sat, Aug 1
82 °FScattered clouds.15 mph56%29.92 "Hg10 mi
6:53 AM81 °FPassing clouds.15 mph56%29.90 "Hg10 mi
5:53 AM80 °FPassing clouds.14 mph64%29.88 "Hg10 mi
4:53 AM81 °FPassing clouds.10 mph60%29.89 "Hg10 mi
3:53 AM82 °FPassing clouds.8 mph56%29.91 "Hg10 mi
2:53 AM83 °FPassing clouds.12 mph51%29.92 "Hg10 mi
1:53 AM85 °FPassing clouds.10 mph50%29.92 "Hg10 mi
12:53 AM85 °FPassing clouds.12 mph48%29.93 "Hg10 mi
11:53 PM
Fri, Jul 31
86 °FPassing clouds.14 mph48%29.94 "Hg10 mi
10:53 PM87 °FPassing clouds.12 mph46%29.94 "Hg10 mi
9:53 PM88 °FPassing clouds.10 mph45%29.92 "Hg10 mi
8:53 PM88 °FScattered clouds.13 mph52%29.90 "Hg10 mi
7:53 PM89 °FScattered clouds.16 mph53%29.89 "Hg10 mi
6:53 PM91 °FScattered clouds.16 mph54%29.88 "Hg10 mi
5:53 PM92 °FScattered clouds.13 mph52%29.87 "Hg10 mi
4:53 PM93 °FScattered clouds.10 mph49%29.90 "Hg10 mi
3:53 PM93 °FPassing clouds.13 mph50%29.90 "Hg10 mi
2:53 PM92 °FScattered clouds.9 mph52%29.92 "Hg10 mi
1:53 PM92 °FScattered clouds.9 mph49%29.94 "Hg10 mi
12:53 PM89 °FScattered clouds.12 mph57%29.96 "Hg10 mi
11:53 AM88 °FScattered clouds.7 mph59%29.96 "Hg10 mi
10:53 AM86 °FBroken clouds.7 mph61%29.97 "Hg10 mi
9:53 AM85 °FPartly sunny.13 mph61%29.96 "Hg10 mi
Weather by CustomWeather, © 2015

See weather overviewHow to use our weather pages